Weather History for Tallahassee, FL

Change the Weather History Date:

Monday, February 11, 2013

  Actual Average Record
Temperature  
Mean Temperature 70 °F 54 °F  
Max Temperature 74 °F 67 °F 82 °F (1932)
Min Temperature 65 °F 41 °F 17 °F (1971)
Degree Days  
Heating Degree Days 0    
Month to date heating degree days 89  
Since 1 July heating degree days 807  
Cooling Degree Days 5    
Month to date cooling degree days 5  
Year to date cooling degree days 39  
Growing Degree Days 20 (Base 50)    
Moisture  
Dew Point 63 °F    
Average Humidity 80    
Maximum Humidity 93    
Minimum Humidity 66    
Precipitation  
Precipitation 0.03 in 0.16 in 4.84 in (1981)
Month to date precipitation 0.42 1.75  
Year to date precipitation 1.27 6.09  
Sea Level Pressure  
Sea Level Pressure 30.10 in    
Wind  
Wind Speed 9 mph (SSE)    
Max Wind Speed 18 mph    
Max Gust Speed 23 mph    
Visibility 8 miles    
Events Fog , Rain    
T = Trace of Precipitation, MM = Missing Value Source: NWS Daily Summary

Daily Weather History Graph

Daily Weather History Graph

Search for Another Location

Airport:

Trip Planner

Search our weather history database for the weather conditions in past years. The results will help you decide how hot, cold, wet, or windy it might be!

Date:

Astronomy

Feb. 11, 2013 Rise Set
Actual Time 7:20 AM EST 6:22 PM EST
Civil Twilight 6:56 AM EST 6:47 PM EST
Nautical Twilight 6:27 AM EST 7:15 PM EST
Astronomical Twilight 5:59 AM EST 7:43 PM EST
Moon 7:55 AM EST (2/11) 8:06 PM EST (2/11)
Length of Visible Light 11h 51m
Length of Day
11h 01m
Waxing Crescent, 3% of the Moon is Illuminated
Feb 11
Waxing Crescent
Feb 17
First Quarter
Feb 25
Full
Mar 4
Last Quarter
Mar 11
New

Hourly Weather History & Observations

Time (EST) Temp. Dew Point Humidity Pressure Visibility Wind Dir Wind Speed Gust Speed Precip Events Conditions
12:53 AM 70.0 °F 57.0 °F 63% 30.11 in 10.0 mi South 8.1 mph - N/A   Overcast
1:53 AM 69.1 °F 60.1 °F 73% 30.11 in 10.0 mi SSE 9.2 mph - N/A   Overcast
2:53 AM 66.9 °F 62.1 °F 84% 30.10 in 10.0 mi South 10.4 mph - N/A   Mostly Cloudy
3:38 AM 66.2 °F 62.6 °F 88% 30.10 in 10.0 mi SSE 8.1 mph - N/A   Mostly Cloudy
3:51 AM 66.2 °F 62.6 °F 88% 30.09 in 10.0 mi SSE 9.2 mph - N/A   Mostly Cloudy
3:53 AM 66.0 °F 62.1 °F 87% 30.09 in 10.0 mi SSE 9.2 mph - N/A   Mostly Cloudy
4:53 AM 66.0 °F 62.1 °F 87% 30.09 in 10.0 mi South 9.2 mph - N/A   Overcast
5:53 AM 66.0 °F 62.1 °F 87% 30.11 in 10.0 mi South 9.2 mph - N/A   Overcast
6:53 AM 66.2 °F 62.6 °F 88% 30.12 in 10.0 mi South 10.4 mph - N/A   Overcast
7:53 AM 66.0 °F 62.1 °F 87% 30.12 in 10.0 mi South 8.1 mph - N/A   Overcast
8:53 AM 66.9 °F 63.0 °F 87% 30.14 in 10.0 mi South 9.2 mph - N/A   Overcast
9:53 AM 69.1 °F 63.0 °F 81% 30.15 in 10.0 mi South 6.9 mph - N/A   Overcast
10:50 AM 69.8 °F 64.4 °F 83% 30.16 in 10.0 mi SSW 11.5 mph 18.4 mph N/A   Overcast
10:53 AM 71.1 °F 64.0 °F 78% 30.16 in 10.0 mi South 10.4 mph 17.3 mph N/A   Overcast
11:53 AM 72.0 °F 64.0 °F 76% 30.15 in 10.0 mi South 11.5 mph - N/A   Overcast
12:03 PM 73.4 °F 64.4 °F 73% 30.15 in 10.0 mi South 15.0 mph 20.7 mph N/A   Mostly Cloudy
12:53 PM 73.9 °F 64.0 °F 71% 30.13 in 10.0 mi SSW 12.7 mph 21.9 mph N/A   Overcast
1:53 PM 73.9 °F 64.0 °F 71% 30.10 in 10.0 mi SSW 11.5 mph 19.6 mph N/A   Overcast
2:53 PM 73.0 °F 64.0 °F 73% 30.09 in 10.0 mi South 9.2 mph - N/A   Overcast
3:53 PM 72.0 °F 64.0 °F 76% 30.07 in 10.0 mi SSE 11.5 mph - N/A   Overcast
4:15 PM 71.6 °F 64.4 °F 78% 30.07 in 10.0 mi South 10.4 mph - N/A   Overcast
4:53 PM 70.0 °F 64.9 °F 84% 30.07 in 10.0 mi South 10.4 mph - N/A   Overcast
5:53 PM 69.1 °F 64.9 °F 87% 30.07 in 7.0 mi SE 8.1 mph - N/A   Overcast
6:17 PM 68.0 °F 64.4 °F 88% 30.08 in 1.5 mi South 4.6 mph - N/A   Overcast
6:53 PM 66.9 °F 64.9 °F 93% 30.07 in 0.8 mi East 5.8 mph - N/A   Overcast
7:53 PM 66.0 °F 64.0 °F 93% 30.06 in 0.5 mi ESE 3.5 mph - N/A Fog Fog
8:53 PM 66.0 °F 64.0 °F 93% 30.07 in 0.5 mi SE 4.6 mph - N/A Fog Fog
9:53 PM 66.0 °F 64.0 °F 93% 30.06 in 0.5 mi East 8.1 mph - 0.01 in Fog Fog
10:53 PM 66.0 °F 64.0 °F 93% 30.07 in 0.8 mi North 5.8 mph - 0.01 in Rain Light Rain
11:07 PM 66.2 °F 62.6 °F 88% 30.07 in 4.0 mi North 3.5 mph - 0.00 in Rain Light Rain
11:53 PM 64.9 °F 62.1 °F 90% 30.07 in 5.0 mi NNE 4.6 mph - 0.01 in Rain Light Rain